Tracking 29088 objects as of 13-Jul-2024
HD Live streaming from Space Station
objects crossing your sky now

COSMOS 1275 DEB

Track COSMOS 1275 DEB now!
10-day predictions


NORAD ID: 17626
Int'l Code: 1981-053KY
Perigee: 927.0 km
Apogee: 1,137.8 km
Inclination: 82.9 °
Period: 105.7 minutes
Semi major axis: 7403 km
RCS: 0.0074 m2 (small)
Launch date: June 4, 1981
Source: Commonwealth of Independent States (former USSR) (CIS)
Launch site: PLESETSK MISSILE AND SPACE COMPLEX (PKMTR)

Note: This is SATELLITE DEBRIS
Your satellite tracking list
Your tracking list is empty




NASA's NSSDC Master Catalog

Two Line Element Set (TLE):
1 17626U 81053KV  24194.78567505  .00000179  00000-0  19583-3 0  9998
2 17626  82.8711 311.2445 0142400  25.4446 125.9284 13.62876923943641
Source of the keplerian elements: AFSPC